Weather in Pavlohrad

Ukraine / Dnipropetrovsk Region     48°31′53″N   35°52′10″E
temp.,
°C
wind,
m/s
gust,
m/s
humid.,
%
clouds,
%
prec.,
mm/h
press.,
hPa
HPBL,
m
21 april, wed
wed2100:00+9w51093100 0.9 1004586
03:00+8w61092100 1.1 1007438
06:00+7wsw51091100 0.1 1010355
09:00+10wsw6878100 0.1 1013718
12:00+14wsw685290 0.3 10141996
15:00+13w485498 0.3 10141830
18:00+13sw595788 0.1 1015436
21:00+10sw33685 0.1 101729
22 april, thu
thu2200:00+8sw37805 0.0 1018106
03:00+8sw368530 0.1 1019108
06:00+6sw35905 0.0 102086
09:00+12sw44685 0.0 1021525
12:00+16sw34515 0.4 10211593
15:00+17sw3442100 0.9 10202275
18:00+14sw2358100 0.0 102065
21:00+13s486595 0.0 1021186
23 april, fri
fri2300:00+10ssw478113 0.0 1020125
03:00+8ssw498950 0.1 1020203
06:00+7ssw48890 0.0 1020178
09:00+13ssw69651 0.0 1020671
12:00+16ssw78495 0.0 10191503
15:00+18ssw794393 0.0 10172435
18:00+16s795232 0.0 10151322
21:00+13s71361100 0.1 1016600
24 april, sat
sat2400:00+11ssw61379100 0.7 1014499
03:00+8wnw7989100 1.6 1014619
06:00+6nw6982100 1.0 1016755
09:00+8w576841 1.0 10161108
12:00+12w68415 0.0 10171983
15:00+11w7104876 0.0 10161748
18:00+10wnw8104764 0.4 10171899
21:00+6w49595 0.4 1018266
25 april, sun
sun2500:00+4w39725 0.0 1019306
03:00+3wsw49764 0.0 1019222
06:00+2wsw38760 0.0 1019178
09:00+7w57540 0.0 10191099
12:00+11w6838100 0.0 10192591
15:00+12wnw683397 0.0 10182665
18:00+11wnw473868 0.0 10182290
21:00+7nw22575 0.0 101811